Date,TemperatureHighF,TemperatureAvgF,TemperatureLowF,DewpointHighF,DewpointAvgF,DewpointLowF,HumidityHigh,HumidityAvg,HumidityLow,PressureMaxIn,PressureMinIn,WindSpeedMaxMPH,WindSpeedAvgMPH,GustSpeedMaxMPH,PrecipitationSumIn
2013-3-1,46.6,39.3,33.0,32.0,29.8,27.0,88,70,52,29.74,29.56,10,2,12,0.00
2013-3-2,40.9,35.7,30.8,27.0,25.3,23.0,81,66,55,29.74,29.66,8,2,12,0.00
2013-3-3,39.5,33.0,28.9,23.0,20.5,18.0,72,61,50,29.73,29.63,9,3,15,0.00
2013-3-4,42.3,34.4,27.3,24.0,20.4,16.0,70,58,45,29.87,29.73,18,4,18,0.00
2013-3-5,50.0,38.9,30.0,30.0,25.8,22.0,80,61,43,29.97,29.87,5,1,12,0.00
2013-3-6,42.5,39.9,35.9,36.0,32.7,29.0,84,76,65,29.91,29.77,11,5,23,0.00
2013-3-7,40.4,37.2,33.4,36.0,31.2,28.0,94,79,66,30.03,29.86,9,3,20,0.08
2013-3-8,40.2,34.8,31.2,36.0,32.2,29.0,95,90,72,30.15,29.96,5,1,8,0.41
2013-3-9,57.6,42.6,30.8,29.0,24.0,15.0,77,52,20,30.27,30.13,5,1,10,0.10
2013-3-10,47.9,38.1,28.0,37.0,32.6,26.0,96,81,65,30.34,30.25,6,1,10,0.00
2013-3-11,56.2,45.9,34.3,48.0,41.9,32.0,94,86,63,30.27,30.03,5,1,8,0.00
2013-3-12,57.4,53.0,44.5,57.0,50.0,39.0,97,89,76,30.04,29.61,11,2,17,0.57
2013-3-13,51.2,43.2,36.6,39.0,31.8,25.0,93,67,36,29.85,29.75,9,2,18,0.00
2013-3-14,43.1,35.7,30.6,25.0,14.7,8.0,62,44,29,29.93,29.80,16,5,24,0.00
2013-3-15,47.3,38.7,28.1,32.0,21.8,12.0,62,51,41,29.95,29.67,17,3,17,0.00
2013-3-16,44.0,35.9,32.9,32.0,28.5,22.0,93,76,53,29.87,29.73,5,1,6,0.04
2013-3-17,38.7,33.6,29.1,31.0,21.4,16.0,91,63,43,30.25,29.86,6,1,12,0.01
2013-3-18,35.7,31.2,27.2,33.0,21.3,10.0,95,69,48,30.35,29.96,8,2,13,0.14
2013-3-19,47.9,39.0,34.3,38.0,33.5,19.0,97,82,42,29.95,29.65,12,2,19,0.59
2013-3-20,46.3,38.2,30.8,24.0,20.6,18.0,66,51,33,29.85,29.73,10,3,21,0.00
2013-3-21,40.3,34.9,30.2,29.0,19.5,13.0,86,56,36,29.79,29.59,7,2,12,0.00
2013-3-22,42.5,34.5,26.4,24.0,19.3,14.0,73,55,39,29.84,29.70,12,3,19,0.00
2013-3-23,46.5,39.5,31.1,24.0,21.2,19.0,69,50,36,29.89,29.78,14,4,20,0.00
2013-3-24,47.9,39.8,30.5,29.0,22.8,19.0,65,52,38,29.91,29.65,6,1,12,0.00
2013-3-25,39.7,37.3,34.1,36.0,31.7,27.0,95,81,62,29.65,29.43,10,2,15,0.18
2013-3-26,52.0,42.2,32.3,36.0,31.0,27.0,95,68,40,29.82,29.55,7,1,13,0.00
2013-3-27,52.8,43.5,33.5,32.0,28.6,24.0,74,58,33,29.94,29.82,9,2,15,0.00
2013-3-28,51.2,43.7,34.0,34.0,30.8,29.0,83,62,46,30.06,29.92,7,2,12,0.00
2013-3-29,55.8,44.2,32.6,32.0,29.6,28.0,84,59,36,30.10,30.01,8,2,13,0.00
2013-3-30,59.4,46.6,32.0,34.0,27.0,20.0,87,52,24,30.13,30.01,7,1,13,0.00
2013-3-31,57.6,45.5,31.9,44.0,34.8,25.0,96,69,38,30.07,29.63,6,1,13,0.12